Sauk Centre, MN

11:40 PM CST on December 05, 2019 (GMT -0600)
Sauk Centre

Weather History for KD39 - September, 2019

Change the Weather History Date:

Sunday, September 22, 2019

  Actual Average (KGHW) Record (KGHW)
Temperature  
Mean Temperature 58 °F -  
Max Temperature 64 °F 65 °F 89 °F (2017)
Min Temperature 53 °F 42 °F 25 °F (1974)
Degree Days  
Heating Degree Days 6    
Growing Degree Days 8 (Base 50)    
Moisture  
Dew Point 52 °F    
Average Humidity 84    
Maximum Humidity 100    
Minimum Humidity 56    
Precipitation  
Precipitation 0.00 in - - ()
Sea Level Pressure  
Sea Level Pressure 29.88 in    
Wind  
Wind Speed 5 mph ()    
Max Wind Speed 10 mph    
Max Gust Speed -    
Visibility 10.0 miles    
Events      
Averages and records for this station are not official NWS values.
T = Trace of Precipitation, MM = Missing Value Source: Averaged Metar Reports

Daily Weather History Graph

Daily Weather History Graph

Search for Another Location

Airport or City:

Astronomy

Sep. 22, 2019 Rise Set
Actual Time 7:06 AM CDT 7:17 PM CDT
Civil Twilight 6:36 AM CDT 7:47 PM CDT
Nautical Twilight 6:01 AM CDT 8:22 PM CDT
Astronomical Twilight 5:25 AM CDT 8:57 PM CDT
Moon No Moon Rise 3:33 PM CDT (9/22)
Length of Visible Light 13h 10m
Length of Day
12h 11m
Last Quarter, 44% of the Moon is Illuminated
Sep 22
Last Quarter
Sep 28
New
Oct 5
First Quarter
Oct 13
Full
Oct 21
Last Quarter

Hourly Weather History & Observations

Time (CDT) Temp. Dew Point Humidity Pressure Visibility Wind Dir Wind Speed Gust Speed Precip Events Conditions
12:59 AM 59.0 °F 55.4 °F 88% 29.84 in 10.0 mi West 8.1 mph - N/A   Clear
1:59 AM 57.2 °F 55.4 °F 94% 29.83 in 10.0 mi WSW 6.9 mph - N/A   Clear
2:59 AM 57.2 °F 55.4 °F 94% 29.83 in 10.0 mi WSW 5.8 mph - N/A   Clear
3:59 AM 57.2 °F 55.4 °F 94% 29.82 in 10.0 mi WNW 6.9 mph - N/A   Mostly Cloudy
4:59 AM 55.4 °F 55.4 °F 100% 29.84 in 10.0 mi West 4.6 mph - N/A   Clear
5:59 AM 55.4 °F 53.6 °F 94% 29.86 in 10.0 mi WNW 4.6 mph - N/A   Clear
6:59 AM 53.6 °F 51.8 °F 94% 29.88 in 10.0 mi Calm Calm - N/A   Clear
7:59 AM 53.6 °F 51.8 °F 94% 29.89 in 10.0 mi West 3.5 mph - N/A   Clear
8:59 AM 53.6 °F 51.8 °F 94% 29.90 in 10.0 mi West 6.9 mph - N/A   Clear
9:59 AM 55.4 °F 51.8 °F 88% 29.92 in 10.0 mi West 8.1 mph - N/A   Mostly Cloudy
10:59 AM 55.4 °F 51.8 °F 88% 29.91 in 10.0 mi West 4.6 mph - N/A   Clear
11:59 AM 57.2 °F 51.8 °F 82% 29.90 in 10.0 mi West 8.1 mph - N/A   Scattered Clouds
12:59 PM 59.0 °F 50.0 °F 72% 29.89 in 10.0 mi West 6.9 mph - N/A   Clear
1:59 PM 62.6 °F 50.0 °F 63% 29.88 in 10.0 mi NW 6.9 mph - N/A   Clear
2:59 PM 62.6 °F 48.2 °F 59% 29.87 in 10.0 mi NW 8.1 mph - N/A   Scattered Clouds
3:59 PM 64.4 °F 48.2 °F 56% 29.87 in 10.0 mi WNW 10.4 mph - N/A   Clear
4:59 PM 64.4 °F 48.2 °F 56% 29.88 in 10.0 mi NW 5.8 mph - N/A   Mostly Cloudy
5:59 PM 62.6 °F 50.0 °F 63% 29.89 in 10.0 mi Calm Calm - N/A   Clear
6:59 PM 60.8 °F 55.4 °F 82% 29.88 in 10.0 mi Calm Calm - N/A   Scattered Clouds
7:59 PM 59.0 °F 53.6 °F 82% 29.89 in 10.0 mi SW 5.8 mph - N/A   Mostly Cloudy
8:59 PM 57.2 °F 53.6 °F 88% 29.90 in 10.0 mi SSW 5.8 mph - N/A   Clear
9:59 PM 55.4 °F 53.6 °F 94% 29.91 in 10.0 mi SSW 5.8 mph - N/A   Clear
10:59 PM 53.6 °F 51.8 °F 94% 29.91 in 10.0 mi SW 5.8 mph - N/A   Clear
11:59 PM 53.6 °F 51.8 °F 94% 29.92 in 10.0 mi WSW 5.8 mph - N/A   Scattered Clouds